Fairfield, IL

8:11 AM CST on February 25, 2017 (GMT -0600)
Fairfield Municipal

Weather History for KFWC - November, 2012

Change the Weather History Date:

Tuesday, November 27, 2012

  Actual Average (KMVN) Record (KMVN)
Temperature  
Mean Temperature 32 °F -  
Max Temperature 39 °F 49 °F 68 °F (1998)
Min Temperature 24 °F 32 °F 15 °F (2013)
Degree Days  
Heating Degree Days 34    
Moisture  
Dew Point 25 °F    
Average Humidity 79    
Maximum Humidity 93    
Minimum Humidity 56    
Precipitation  
Precipitation 0.00 in - - ()
Sea Level Pressure  
Sea Level Pressure 30.36 in    
Wind  
Wind Speed 6 mph (North)    
Max Wind Speed 12 mph    
Max Gust Speed 16 mph    
Visibility 9 miles    
Events      
Averages and records for this station are not official NWS values.
T = Trace of Precipitation, MM = Missing Value Source: NWS Daily Summary

Daily Weather History Graph

Daily Weather History Graph

Search for Another Location

Airport or City:

Trip Planner

Search our weather history database for the weather conditions in past years. The results will help you decide how hot, cold, wet, or windy it might be!

Date:

Astronomy

Nov. 27, 2012 Rise Set
Actual Time 6:48 AM CST 4:34 PM CST
Civil Twilight 6:19 AM CST 5:03 PM CST
Nautical Twilight 5:46 AM CST 5:35 PM CST
Astronomical Twilight 5:14 AM CST 6:07 PM CST
Moon 4:05 PM CST (11/27) 5:53 AM CST (11/27)
Length of Visible Light 10h 43m
Length of Day
9h 45m
Waxing Gibbous, 99% of the Moon is Illuminated
Nov 27
Waxing Gibbous
Nov 28
Full
Dec 6
Last Quarter
Dec 13
New
Dec 19
First Quarter

Hourly Weather History & Observations

Time (CST) Temp. Windchill Dew Point Humidity Pressure Visibility Wind Dir Wind Speed Gust Speed Precip Events Conditions
12:15 AM 33.8 °F 25.3 °F 26.6 °F 75% 30.32 in 10.0 mi North 11.5 mph 16.1 mph N/A   Unknown
12:35 AM 32.0 °F 23.6 °F 26.6 °F 80% 30.33 in 10.0 mi North 10.4 mph - N/A   Unknown
12:55 AM 30.2 °F 24.3 °F 26.6 °F 86% 30.33 in 10.0 mi North 5.8 mph - N/A   Unknown
1:15 AM 30.2 °F 24.3 °F 26.6 °F 86% 30.33 in 10.0 mi North 5.8 mph - N/A   Unknown
1:35 AM 30.2 °F 21.3 °F 26.6 °F 86% 30.33 in 10.0 mi North 10.4 mph - N/A   Unknown
1:55 AM 30.2 °F 22.6 °F 26.6 °F 86% 30.34 in 10.0 mi North 8.1 mph - N/A   Unknown
2:17 AM 30.2 °F 21.9 °F 26.6 °F 86% 30.34 in 10.0 mi North 9.2 mph - N/A   Unknown
2:37 AM 30.2 °F 22.6 °F 26.6 °F 86% 30.34 in 10.0 mi North 8.1 mph - N/A   Unknown
2:58 AM 30.2 °F 25.4 °F 26.6 °F 86% 30.34 in 10.0 mi NNW 4.6 mph - N/A   Unknown
3:18 AM 28.4 °F 23.3 °F 26.6 °F 93% 30.33 in 10.0 mi North 4.6 mph - N/A   Unknown
3:38 AM 28.4 °F 23.3 °F 26.6 °F 93% 30.32 in 10.0 mi NNW 4.6 mph - N/A   Unknown
3:58 AM 28.4 °F 24.6 °F 24.8 °F 86% 30.33 in 10.0 mi NNW 3.5 mph - N/A   Unknown
4:15 AM 28.4 °F 23.3 °F 24.8 °F 86% 30.33 in 7.0 mi NNW 4.6 mph - N/A   Unknown
4:19 AM 28.4 °F 22.2 °F 26.6 °F 93% 30.33 in 7.0 mi NNW 5.8 mph - N/A   Unknown
4:35 AM 28.4 °F 24.6 °F 24.8 °F 86% 30.34 in 7.0 mi NNW 3.5 mph - N/A   Unknown
4:55 AM 28.4 °F - 24.8 °F 86% 30.34 in 7.0 mi Calm Calm - N/A   Unknown
5:15 AM 28.4 °F - 24.8 °F 86% 30.35 in 7.0 mi Calm Calm - N/A   Unknown
5:35 AM 26.6 °F - 24.8 °F 93% 30.34 in 7.0 mi Calm Calm - N/A   Unknown
5:55 AM 26.6 °F 22.6 °F 24.8 °F 93% 30.34 in 7.0 mi NNW 3.5 mph - N/A   Unknown
6:15 AM 26.6 °F 21.2 °F 24.8 °F 93% 30.36 in 7.0 mi NNW 4.6 mph - N/A   Unknown
6:35 AM 26.6 °F 22.6 °F 24.8 °F 93% 30.37 in 10.0 mi NNW 3.5 mph - N/A   Unknown
6:55 AM 26.6 °F 21.2 °F 24.8 °F 93% 30.38 in 10.0 mi NNW 4.6 mph - N/A   Unknown
7:15 AM 26.6 °F 21.2 °F 24.8 °F 93% 30.39 in 10.0 mi North 4.6 mph - N/A   Unknown
7:35 AM 26.6 °F 19.1 °F 24.8 °F 93% 30.39 in 10.0 mi North 6.9 mph - N/A   Unknown
7:55 AM 28.4 °F 20.4 °F 24.8 °F 86% 30.40 in 10.0 mi North 8.1 mph - N/A   Unknown
8:15 AM 28.4 °F 19.1 °F 24.8 °F 86% 30.41 in 10.0 mi North 10.4 mph - N/A   Unknown
8:35 AM 30.2 °F 22.6 °F 24.8 °F 80% 30.41 in 10.0 mi North 8.1 mph - N/A   Unknown
8:55 AM 30.2 °F 23.4 °F 26.6 °F 86% 30.41 in 10.0 mi North 6.9 mph - N/A   Unknown
9:15 AM 32.0 °F 26.4 °F 26.6 °F 80% 30.42 in 10.0 mi North 5.8 mph - N/A   Unknown
9:35 AM 33.8 °F 28.6 °F 26.6 °F 75% 30.42 in 10.0 mi North 5.8 mph - N/A   Unknown
9:55 AM 33.8 °F 27.0 °F 26.6 °F 75% 30.42 in 10.0 mi NNE 8.1 mph - N/A   Unknown
10:15 AM 35.6 °F 30.7 °F 26.6 °F 70% 30.43 in 10.0 mi North 5.8 mph - N/A   Unknown
10:35 AM 35.6 °F 29.2 °F 26.6 °F 70% 30.42 in 10.0 mi NNE 8.1 mph - N/A   Unknown
10:55 AM 37.4 °F 30.8 °F 26.6 °F 65% 30.41 in 10.0 mi North 9.2 mph - N/A   Unknown
11:15 AM 37.4 °F 30.3 °F 26.6 °F 65% 30.40 in 10.0 mi North 10.4 mph - N/A   Unknown
11:35 AM 37.4 °F 32.1 °F 26.6 °F 65% 30.40 in 10.0 mi North 6.9 mph - N/A   Unknown
11:55 AM 37.4 °F 33.8 °F 26.6 °F 65% 30.39 in 10.0 mi NNE 4.6 mph - N/A   Unknown
12:15 PM 39.2 °F 34.2 °F 26.6 °F 61% 30.38 in 10.0 mi North 6.9 mph - N/A   Unknown
12:35 PM 39.2 °F 34.2 °F 26.6 °F 61% 30.37 in 10.0 mi North 6.9 mph - N/A   Unknown
12:55 PM 39.2 °F 34.2 °F 24.8 °F 56% 30.37 in 10.0 mi North 6.9 mph - N/A   Unknown
1:15 PM 39.2 °F 33.6 °F 24.8 °F 56% 30.36 in 10.0 mi NNE 8.1 mph - N/A   Unknown
1:35 PM 39.2 °F 35.0 °F 26.6 °F 61% 30.35 in 10.0 mi North 5.8 mph - N/A   Unknown
1:55 PM 39.2 °F 35.0 °F 24.8 °F 56% 30.35 in 10.0 mi North 5.8 mph - N/A   Unknown
2:15 PM 39.2 °F 35.0 °F 24.8 °F 56% 30.34 in 10.0 mi North 5.8 mph - N/A   Unknown
2:35 PM 39.2 °F - 24.8 °F 56% 30.34 in 10.0 mi Calm Calm - N/A   Unknown
2:55 PM 39.2 °F 35.9 °F 24.8 °F 56% 30.34 in 10.0 mi North 4.6 mph - N/A   Unknown
3:15 PM 39.2 °F - 24.8 °F 56% 30.34 in 10.0 mi Calm Calm - N/A   Unknown
3:35 PM 39.2 °F 37.0 °F 24.8 °F 56% 30.34 in 10.0 mi North 3.5 mph - N/A   Unknown
3:55 PM 39.2 °F 37.0 °F 24.8 °F 56% 30.34 in 10.0 mi NNE 3.5 mph - N/A   Unknown
4:15 PM 37.4 °F - 26.6 °F 65% 30.34 in 10.0 mi Calm Calm - N/A   Unknown
4:35 PM 37.4 °F - 24.8 °F 60% 30.34 in 10.0 mi Calm Calm - N/A   Unknown
4:55 PM 35.6 °F - 26.6 °F 70% 30.34 in 10.0 mi Calm Calm - N/A   Unknown
5:15 PM 35.6 °F - 24.8 °F 65% 30.34 in 10.0 mi Calm Calm - N/A   Unknown
5:35 PM 33.8 °F - 26.6 °F 75% 30.34 in 10.0 mi Calm Calm - N/A   Unknown
5:55 PM 30.2 °F - 26.6 °F 86% 30.35 in 10.0 mi Calm Calm - N/A   Unknown
6:15 PM 30.2 °F - 26.6 °F 86% 30.34 in 10.0 mi Calm Calm - N/A   Unknown
6:35 PM 30.2 °F - 24.8 °F 80% 30.34 in 10.0 mi Calm Calm - N/A   Unknown
6:55 PM 28.4 °F - 24.8 °F 86% 30.35 in 10.0 mi Calm Calm - N/A   Unknown
7:15 PM 28.4 °F - 24.8 °F 86% 30.35 in 10.0 mi Calm Calm - N/A   Unknown
7:35 PM 26.6 °F - 23.0 °F 86% 30.34 in 10.0 mi Calm Calm - N/A   Unknown
7:55 PM 26.6 °F - 24.8 °F 93% 30.35 in 10.0 mi Calm Calm - N/A   Unknown
8:15 PM 28.4 °F - 24.8 °F 86% 30.36 in 7.0 mi Calm Calm - N/A   Unknown
8:35 PM 26.6 °F - 23.0 °F 86% 30.35 in 7.0 mi Calm Calm - N/A   Unknown
8:55 PM 26.6 °F - 24.8 °F 93% 30.35 in 7.0 mi Calm Calm - N/A   Unknown
9:15 PM 26.6 °F - 23.0 °F 86% 30.35 in 7.0 mi Calm Calm - N/A   Unknown
9:35 PM 26.6 °F - 23.0 °F 86% 30.35 in 7.0 mi Calm Calm - N/A   Unknown
9:55 PM 26.6 °F - 23.0 °F 86% 30.35 in 4.0 mi Calm Calm - N/A   Mist
10:15 PM 26.6 °F - 24.8 °F 93% 30.34 in 5.0 mi Calm Calm - N/A   Mist
10:35 PM 26.6 °F - 23.0 °F 86% 30.35 in 5.0 mi Calm Calm - N/A   Mist
10:55 PM 24.8 °F - 21.2 °F 86% 30.35 in 5.0 mi Calm Calm - N/A   Mist
11:15 PM 24.8 °F - 21.2 °F 86% 30.35 in 4.0 mi Calm Calm - N/A   Mist
11:35 PM 24.8 °F - 21.2 °F 86% 30.35 in 4.0 mi Calm Calm - N/A   Mist
11:55 PM 24.8 °F - 21.2 °F 86% 30.35 in 3.0 mi Calm Calm - N/A   Mist